LFBT

Tarbes-Lourdes-Pyrénées Airport

Airport
ICAO code
LFBT
IATA Code
LDE
Summary
ICAO Region
EUR
ICAO Territory
Location

Ossun, Midi-Pyrenees

Serving
Tarbes
Elevation
1259 ft
Coordinates
43° 10' 57" N , 0° 0' 15" W
KCC
Airport WX
Fog
Metar
Observation
LFBT 031730Z AUTO 02004KT CAVOK 06/02 Q1034 NOSIG
Station
Tarbes Ossun Lourdes
Date/Time
2023-02-03 17:30:00
Wind direction
20°
Wind speed
04 kts
Lowest cloud amount
clouds and visibility OK
Temperature
6°C
Dew point
2°C
Humidity
75%
QNH
1034 hPa
Weather condition
n/a

Description

International airport serving Tarbes.

Climatology

Temperate Marine climate/Oceanic climate (Köppen climate classification Cfb). Moderately cool summer and comparatively warm winter. Prevailing south-westerly winds from the Atlantic Ocean.

Runways

Designator Length Width Surface Rops
2/20 3000 45 ASP Yes/Yes

Airport map

Aerial View

Airport accidents

SKYbrary Partners:

Safety knowledge contributed by: